Find Starlink 30172

NORAD ID: 57410 Int'l Des: 2023-102 Owner: SPXS Country: US Constellation: starlink operational
LEOCIRCULAR

当前视图

正在加载3D地球...

About Starlink 30172

Starlink 30172 (NORAD 57410) is a starlink constellation satellite (v2 mini) launched Jul 19, 2023 by SPXS of US. It operates in LEO, CIRCULAR orbit with a mass of 730.00 kg.

关于 Starlink 30172

正在加载描述...

即将过境

Passes for default location (London). Set your location on the main map for personalized predictions.

高度历史

Loading altitude history...

两行轨道根数

1 57410U 23102G 26169.00451279 -.00000645 00000-0 -13926-4 0 9999
2 57410 43.0045 42.7440 0001136 274.0212 86.0510 15.27573691161571
Epoch: Jun 18, 2026 • Age: 15 hours

当前状态

高度 484.0 km
速度 7.63 km/s
星下点 28.59°N, 54.56°E
发射日期 Jul 19, 2023
运行时间 2.9 years
类型 internet

技术详情

分类 Payload
质量 730.00 kg
干质量 700.00 kg
总质量 730.00 kg
长度 0.30 m
直径 4.10 m
跨度 29.00 m
形状 Box + pan
制造商 SPXS
平台类型 Starlink V2M
阶段状态 In Orbit
所有者/国家 SPXS/US

Most Searched